Wind_Speed
17 20 18 20 25 29 29 28 29 28 31 36 36 38 37 36 36 31 34 35 38 41 41 41 39 45 52 49 54 52 40 38 37 37 38 34 31 28 30 32 35 35 35 36
20 18 19 25 28 29 33 33 31 32 33 37 40 41 40 39 38 41 42 41 42 42 43 45 44 43 47 56 53 48 49 51 37 39 40 36 32 29 28 32 34 35 36 36
24 21 24 27 29 32 35 34 34 37 38 40 41 43 42 39 38 40 40 42 44 45 46 47 49 45 49 49 49 39 44 44 46 45 41 36 34 31 29 31 32 35 36 37
30 28 29 28 28 33 33 33 37 39 41 44 44 49 43 42 41 41 43 43 43 44 46 48 49 49 47 51 54 51 45 37 44 53 43 39 38 35 31 30 30 31 34 38
26 30 32 30 28 34 26 32 37 40 43 46 49 53 47 44 42 40 41 40 40 41 44 47 48 50 51 51 57 57 56 52 54 40 41 43 38 38 34 34 32 33 35 36
33 33 37 29 32 34 32 36 37 42 47 58 48 51 44 44 41 40 38 38 37 39 41 46 50 50 52 52 54 57 51 54 37 37 43 40 40 40 37 37 35 36 34 35
35 35 36 37 36 38 36 36 40 45 50 55 43 52 37 41 41 40 37 36 37 38 40 43 47 49 49 51 52 55 57 62 55 53 51 45 46 46 41 41 41 40 37 36
38 37 32 33 36 32 36 36 42 46 47 44 45 55 36 40 38 36 32 33 36 37 39 40 42 47 49 51 53 54 58 59 57 57 55 53 49 50 47 45 43 44 41 36
37 37 35 40 38 38 36 40 31 43 45 50 49 43 41 39 35 32 31 31 35 36 38 39 41 44 49 50 51 55 58 57 58 58 56 53 50 45 45 47 47 49 44 39
34 40 34 36 40 41 43 36 36 43 49 56 61 47 40 39 34 32 31 31 31 33 35 39 40 44 47 50 52 52 53 54 54 55 56 55 59 57 52 47 49 49 45 43
36 41 45 40 35 41 38 42 46 44 49 54 58 55 40 45 40 35 32 30 32 33 34 37 39 40 45 48 50 51 52 53 54 54 54 55 54 55 58 56 55 51 48 46
40 46 50 47 43 47 47 37 40 45 48 54 53 53 43 47 41 37 33 33 32 34 30 31 36 41 41 45 48 50 51 51 51 52 53 52 54 56 56 56 55 51 49 48
40 45 50 52 48 48 50 52 46 45 43 57 59 56 42 43 42 35 32 31 31 32 39 40 37 38 41 43 45 48 48 49 49 49 49 50 51 51 51 50 49 49 49 49
47 48 49 52 50 47 50 53 60 53 50 46 52 61 54 50 46 39 30 31 33 35 38 40 45 43 41 41 42 43 44 45 45 46 46 46 45 48 51 52 51 50 50 49
50 52 50 52 52 51 54 53 58 67 65 62 48 54 41 57 51 50 43 36 33 32 39 35 42 43 43 41 40 41 41 40 40 41 43 45 47 49 49 49 49 49 48 48
52 54 52 54 52 54 58 59 60 64 65 70 64 57 47 39 56 58 53 40 37 33 36 36 40 43 41 43 41 38 39 40 41 40 40 40 41 43 44 45 46 46 47 47
53 52 53 58 53 57 64 61 59 61 65 66 73 70 61 54 52 63 50 57 48 37 37 39 40 44 38 34 34 35 38 39 38 39 41 40 40 40 41 40 40 41 40 40
53 49 53 59 57 64 58 55 56 59 60 66 69 70 68 69 58 58 51 56 52 45 42 46 47 40 41 41 36 32 35 36 38 39 38 40 40 39 39 38 38 37 37 38
48 50 54 57 58 62 61 53 51 52 55 60 65 63 59 62 71 59 50 49 56 50 40 37 42 45 48 45 41 38 37 36 36 36 36 36 36 35 35 35 37 39 41 42
43 45 50 54 57 62 59 49 47 46 52 47 54 55 54 51 58 65 56 39 55 56 50 49 41 41 47 44 37 39 40 41 39 39 40 38 37 38 39 39 41 42 42 43
43 45 46 45 49 50 39 33 30 38 39 38 42 46 41 43 46 52 60 43 45 50 49 46 47 42 37 39 42 45 40 41 40 42 44 42 41 41 40 40 39 41 43 44
41 38 33 33 33 35 27 24 25 24 26 32 33 30 39 41 39 39 53 49 43 55 52 53 45 44 44 43 41 42 41 39 40 40 39 41 43 44 45 44 43 42 42 42
35 34 33 31 31 31 32 31 29 28 27 27 35 37 37 43 43 37 43 47 44 49 58 61 53 53 51 43 44 39 44 40 39 40 41 40 41 42 42 43 42 40 41 44
32 31 31 33 30 32 32 33 36 34 35 36 35 36 41 36 42 38 33 39 48 46 49 52 50 47 45 43 43 41 42 41 40 40 40 42 43 42 40 40 40 41 42 44
31 30 31 30 29 34 35 34 36 37 33 30 31 36 44 42 37 40 40 37 46 45 44 50 51 48 42 41 40 38 40 39 38 38 37 37 37 37 38 40 40 40 41 42
32 31 30 28 30 32 33 34 35 37 39 33 28 37 41 44 44 34 33 41 41 45 44 44 44 46 44 43 42 40 38 38 38 37 36 36 38 39 39 39 40 39 38 38
Wind_Direction
249 247 243 244 247 250 250 245 243 242 241 242 239 236 234 234 242 242 238 237 226 224 228 233 232 229 230 225 224 228 228 220 235 238 247 251 254 255 249 242 243 242 240 240
248 253 251 244 242 244 244 245 243 239 240 244 242 244 240 234 232 231 231 232 232 229 228 231 235 233 229 227 229 233 234 241 241 242 246 249 253 254 256 250 245 244 243 241
246 244 242 245 242 243 243 247 248 251 247 246 245 241 242 239 235 237 237 235 235 234 234 236 236 234 230 230 237 233 225 240 242 245 244 248 253 255 254 254 250 249 247 247
247 248 248 245 249 249 250 249 248 248 249 249 249 250 239 240 238 235 235 239 240 238 238 235 234 238 235 231 229 241 227 217 230 243 238 246 250 254 255 255 252 253 253 250
250 245 249 243 249 250 247 249 252 251 252 252 248 251 244 241 244 244 244 246 247 244 240 240 239 236 236 232 234 236 228 246 242 247 239 242 247 252 256 257 255 257 256 257
252 246 250 246 242 248 244 247 246 248 251 250 251 254 247 245 244 245 244 245 247 247 243 239 238 236 236 235 233 237 237 235 232 235 245 242 244 249 251 257 258 257 259 259
253 249 246 248 243 244 245 245 249 248 246 256 256 256 251 248 245 244 247 249 249 248 246 243 239 239 237 236 236 236 239 241 246 246 246 252 250 251 251 256 256 257 259 260
257 250 249 250 251 248 253 253 252 256 264 269 260 257 254 257 259 256 249 244 249 250 247 244 240 240 238 234 233 234 237 238 240 245 248 252 252 252 250 253 259 258 260 264
266 262 246 248 249 243 243 247 255 262 264 267 262 262 262 261 259 256 255 250 246 248 246 240 234 232 235 237 236 234 235 238 240 241 242 244 249 241 252 253 255 257 260 264
261 267 256 245 247 245 247 247 249 251 254 255 263 262 263 265 268 266 259 255 251 249 248 246 239 234 230 231 232 236 237 237 240 242 244 243 241 251 251 248 253 258 259 262
257 256 259 253 246 247 248 253 247 248 252 257 261 261 259 265 269 267 262 251 245 245 245 240 239 238 235 233 233 234 235 237 239 241 242 243 245 247 248 252 255 259 260 260
261 262 259 256 252 245 243 241 241 252 262 259 260 260 256 263 264 264 260 254 246 239 239 234 234 236 238 236 235 236 237 238 238 239 240 242 244 247 250 253 256 258 259 257
264 262 265 263 255 250 246 240 235 235 246 250 255 261 249 254 257 251 248 252 246 234 236 233 237 236 237 238 237 238 238 237 237 237 239 241 245 248 251 253 255 255 255 257
265 262 263 265 266 261 249 244 247 242 237 241 249 249 251 248 248 249 247 242 243 237 232 234 236 236 235 236 238 239 240 241 241 240 240 242 244 248 249 252 253 255 257 259
268 266 264 264 264 258 258 250 247 248 245 245 241 244 242 245 246 247 241 241 241 235 228 232 235 236 235 234 236 237 237 239 240 241 242 243 244 247 250 252 254 256 257 258
274 273 270 266 264 263 259 254 250 247 248 251 244 239 241 226 240 248 246 240 235 233 224 229 225 228 236 231 231 233 235 237 238 238 241 244 246 248 250 253 255 255 256 256
276 275 274 272 269 264 259 258 255 252 250 252 249 250 238 236 233 237 243 244 240 232 221 222 225 230 226 233 228 233 238 240 242 242 242 243 245 248 251 255 257 257 258 260
280 278 275 274 272 267 268 264 259 255 249 249 251 250 250 243 233 232 237 237 239 236 225 225 231 226 232 236 233 242 243 244 245 245 245 246 248 250 253 257 259 260 259 258
279 277 277 274 273 273 270 272 268 260 252 246 249 252 251 248 247 235 234 235 234 235 226 227 230 229 228 225 238 240 241 241 245 247 248 250 250 252 255 257 256 256 259 261
278 273 272 274 275 276 278 276 271 267 260 249 246 250 248 243 249 242 237 238 228 237 239 241 239 235 227 220 226 242 244 245 245 238 247 249 251 250 253 255 257 261 263 262
283 277 276 273 271 274 278 275 267 257 259 251 247 242 235 235 238 244 241 233 224 225 227 229 228 226 215 222 229 234 239 248 246 242 244 246 249 252 252 252 256 260 265 266
285 280 273 265 265 267 268 265 256 260 256 246 241 232 228 220 215 225 239 234 219 218 220 222 226 230 232 239 224 226 234 237 240 244 246 247 249 249 250 250 256 262 264 265
282 275 268 265 259 259 252 253 253 249 245 250 239 221 215 221 215 211 232 234 219 220 220 219 227 237 237 227 229 229 229 231 238 245 244 247 248 248 251 254 259 264 268 270
278 274 271 264 261 259 257 253 252 254 258 250 244 225 215 201 216 210 209 217 221 220 217 213 220 224 222 225 225 234 236 235 240 245 247 248 249 253 255 258 262 267 272 272
278 270 266 265 260 253 256 254 251 251 252 248 239 224 217 211 195 203 204 212 218 222 220 209 210 219 215 219 223 227 230 236 241 242 246 251 252 254 259 262 264 269 271 273
274 269 268 266 262 260 259 256 253 250 245 242 238 224 220 222 210 207 200 203 208 217 221 213 213 212 213 217 223 230 233 237 238 244 250 254 256 258 261 264 267 271 276 281
Height
5646 5647 5647 5649 5651 5653 5655 5656 5660 5663 5664 5665 5668 5669 5674 5677 5681 5684 5688 5693 5698 5702 5705 5708 5712 5717 5722 5726 5731 5735 5739 5739 5740 5746 5749 5754 5755 5758 5760 5761 5762 5765 5767 5769
5642 5642 5645 5644 5644 5645 5647 5651 5654 5655 5656 5656 5659 5662 5665 5670 5673 5676 5681 5686 5690 5693 5697 5701 5704 5708 5713 5718 5719 5727 5730 5733 5734 5740 5742 5745 5748 5751 5754 5756 5757 5758 5760 5761
5634 5638 5636 5638 5638 5639 5640 5643 5646 5647 5647 5646 5649 5652 5657 5662 5665 5668 5673 5677 5681 5685 5688 5692 5695 5700 5705 5708 5712 5717 5721 5725 5727 5731 5734 5737 5741 5744 5746 5749 5750 5751 5753 5755
5626 5629 5629 5631 5633 5632 5634 5637 5637 5636 5636 5636 5637 5635 5646 5652 5656 5661 5664 5668 5672 5676 5679 5682 5686 5691 5695 5698 5703 5704 5714 5717 5718 5720 5725 5730 5733 5737 5739 5742 5742 5744 5746 5748
5623 5621 5619 5623 5628 5624 5631 5628 5628 5627 5627 5626 5627 5624 5634 5639 5645 5653 5657 5661 5662 5665 5668 5672 5676 5680 5685 5689 5694 5698 5703 5705 5709 5714 5718 5721 5726 5730 5731 5733 5735 5737 5738 5741
5612 5612 5610 5617 5616 5615 5620 5618 5618 5618 5616 5605 5620 5620 5625 5632 5641 5643 5647 5650 5653 5655 5658 5661 5665 5670 5674 5680 5684 5689 5693 5697 5702 5705 5710 5713 5717 5720 5722 5725 5727 5729 5731 5733
5602 5603 5604 5603 5606 5606 5608 5610 5608 5605 5601 5598 5614 5608 5618 5623 5629 5635 5640 5641 5642 5645 5648 5652 5656 5660 5665 5670 5675 5680 5684 5688 5693 5696 5700 5704 5708 5710 5713 5716 5719 5720 5722 5725
5590 5594 5597 5599 5596 5602 5599 5602 5599 5596 5595 5600 5600 5589 5607 5612 5619 5624 5629 5632 5632 5635 5639 5643 5646 5650 5654 5658 5662 5667 5673 5678 5682 5685 5690 5694 5698 5700 5704 5707 5710 5712 5715 5715
5580 5580 5588 5586 5589 5589 5591 5587 5600 5588 5588 5584 5584 5591 5597 5601 5608 5615 5618 5621 5624 5625 5626 5630 5635 5639 5642 5646 5651 5656 5661 5665 5669 5674 5679 5684 5688 5690 5694 5697 5700 5703 5704 5705
5572 5568 5573 5577 5576 5579 5578 5586 5583 5580 5577 5574 5570 5583 5587 5591 5599 5604 5609 5612 5613 5615 5617 5619 5622 5626 5630 5635 5639 5644 5648 5653 5658 5663 5668 5673 5678 5680 5684 5686 5690 5692 5694 5695
5563 5560 5558 5563 5566 5569 5571 5570 5571 5572 5568 5566 5566 5570 5582 5581 5588 5592 5596 5600 5603 5605 5607 5609 5612 5616 5619 5624 5627 5630 5635 5641 5646 5651 5656 5661 5666 5669 5673 5675 5678 5681 5683 5685
5550 5545 5543 5550 5556 5555 5557 5559 5562 5560 5560 5558 5558 5557 5573 5571 5577 5581 5585 5588 5591 5595 5598 5600 5603 5606 5609 5612 5616 5621 5626 5631 5636 5641 5645 5650 5654 5657 5661 5664 5667 5670 5672 5674
5535 5533 5529 5529 5538 5541 5543 5545 5544 5543 5543 5545 5545 5548 5560 5559 5561 5567 5571 5576 5579 5583 5586 5590 5592 5596 5599 5603 5607 5611 5616 5620 5625 5630 5634 5639 5642 5646 5650 5653 5656 5658 5661 5663
5520 5519 5519 5517 5519 5522 5526 5529 5529 5527 5526 5526 5529 5532 5543 5547 5550 5557 5561 5564 5567 5572 5575 5579 5583 5586 5589 5593 5598 5602 5606 5611 5615 5620 5624 5628 5632 5636 5639 5641 5644 5647 5649 5651
5506 5504 5505 5503 5503 5506 5506 5511 5514 5511 5512 5509 5518 5519 5529 5534 5538 5542 5550 5554 5557 5560 5564 5569 5573 5577 5580 5585 5589 5593 5597 5602 5606 5610 5614 5618 5621 5624 5627 5630 5633 5635 5637 5640
5492 5487 5488 5486 5489 5488 5484 5488 5492 5496 5499 5498 5502 5503 5516 5519 5523 5528 5536 5543 5547 5551 5553 5560 5564 5568 5572 5576 5580 5583 5588 5592 5596 5600 5604 5608 5611 5614 5617 5620 5622 5624 5626 5629
5478 5474 5470 5463 5470 5467 5461 5469 5476 5480 5482 5484 5485 5493 5500 5505 5508 5515 5520 5529 5536 5540 5545 5548 5553 5558 5563 5567 5571 5575 5578 5582 5586 5590 5594 5598 5601 5604 5607 5610 5612 5614 5617 5618
5459 5458 5453 5445 5447 5437 5448 5454 5456 5458 5464 5466 5468 5473 5481 5488 5493 5500 5506 5516 5523 5529 5533 5537 5541 5546 5553 5558 5563 5567 5571 5574 5577 5581 5584 5588 5591 5595 5598 5600 5603 5605 5607 5608
5445 5441 5434 5428 5427 5423 5424 5434 5438 5438 5444 5447 5450 5454 5462 5469 5475 5484 5493 5500 5509 5516 5521 5526 5530 5536 5542 5548 5554 5557 5561 5565 5568 5571 5575 5578 5582 5585 5588 5590 5592 5594 5595 5597
5432 5427 5421 5415 5410 5403 5407 5419 5420 5420 5416 5429 5433 5437 5444 5452 5458 5472 5480 5486 5494 5501 5507 5514 5519 5525 5530 5537 5542 5547 5552 5556 5559 5563 5567 5570 5573 5575 5578 5580 5582 5584 5585 5586
5412 5408 5404 5401 5395 5392 5399 5399 5400 5401 5409 5412 5416 5422 5430 5438 5445 5453 5462 5472 5479 5487 5493 5501 5508 5514 5518 5524 5530 5537 5542 5546 5550 5553 5556 5560 5562 5565 5567 5569 5572 5573 5574 5575
5393 5391 5391 5389 5388 5387 5389 5390 5391 5394 5394 5398 5404 5410 5417 5424 5431 5438 5445 5457 5465 5472 5481 5489 5496 5502 5508 5514 5520 5526 5531 5535 5539 5543 5546 5549 5552 5555 5557 5559 5561 5562 5562 5563
5382 5380 5379 5379 5379 5377 5379 5380 5382 5383 5386 5389 5393 5398 5404 5411 5419 5425 5433 5445 5454 5460 5466 5475 5483 5491 5497 5504 5510 5515 5520 5525 5530 5533 5537 5540 5542 5545 5547 5549 5550 5551 5551 5551
5372 5370 5369 5368 5371 5369 5370 5372 5373 5375 5377 5380 5384 5389 5393 5400 5407 5416 5425 5434 5441 5448 5455 5463 5472 5479 5487 5493 5499 5505 5511 5516 5520 5524 5527 5530 5532 5534 5536 5538 5539 5539 5539 5539
5359 5359 5358 5358 5359 5359 5360 5362 5363 5365 5369 5371 5375 5380 5385 5390 5398 5406 5414 5422 5431 5438 5446 5452 5461 5468 5475 5482 5489 5495 5501 5506 5510 5513 5517 5519 5522 5524 5526 5527 5528 5528 5527 5527
5348 5348 5348 5349 5348 5349 5350 5351 5353 5355 5359 5363 5367 5371 5376 5382 5388 5396 5404 5412 5420 5429 5436 5443 5451 5459 5466 5473 5480 5486 5491 5496 5501 5504 5507 5509 5512 5514 5515 5516 5517 5516 5516 5516